{"data":{"norad_id":46496,"intl_designator":"2020-068L","name":"ICEYE-X7","alt_names":[],"object_type":"PAYLOAD","status":"ACTIVE","operator":null,"country":"FIN","launch_date":"2020-09-28","launch_site_code":"PLMSC","launch_vehicle":null,"mission":null,"orbit_class":"UNKNOWN","rcs_meters":null,"size_class":null,"mass_kg":null,"dimensions":null,"purposes":[],"wikipedia_slug":null,"has_3d_model":false,"image_url":null,"decayed_at":null,"tle_current":{"epoch":"2026-09-20T05:08:54.539232Z","epoch_age_seconds":98357,"freshness":"FRESH","line1":"1 46496U 20068L   26263.21452013  .00007523  00000+0  23648-3 0  9994","line2":"2 46496  97.7602 234.2410 0007280   7.3670 352.7677 15.33272849329340","mean_motion":15.33272849,"eccentricity":0.000728,"inclination_deg":97.7602,"raan_deg":234.241,"arg_perigee_deg":7.367,"mean_anomaly_deg":352.7677,"bstar":0.00023648,"rev_number":32934,"period_min":93.916748146892,"perigee_km":461.07285057482,"apogee_km":471.03799474221,"semimajor_km":6844.1924226585,"source":"CELESTRAK","updated_at":"2026-09-20T09:00:14.761454Z"}}}